Regional Weather Roundup
Issued by NWS Upton, NY

Current Version | Previous Version | Text Only | Print | Product List | Glossary On
Versions: 1 2 3 4 5 6 7 8 9 10 11 12 13 14 15 16 17 18 19 20 21 22 23 24 25 26 27 28 29 30 31 32 33 34 35 36 37 38 39 40 41 42 43 44 45 46 47 48 49 50
000 ASUS41 KOKX 230505 RWROKX REGIONAL WEATHER ROUNDUP NATIONAL WEATHER SERVICE NEW YORK NY 100 AM EDT TUE SEP 23 2014 NOTE: "FAIR" INDICATES FEW OR NO CLOUDS BELOW 12,000 FEET WITH NO SIGNIFICANT WEATHER AND/OR OBSTRUCTIONS TO VISIBILITY. NYZ071-072-176-178-NJZ106-104-230600- NEW YORK CITY METRO AREA CITY SKY/WX TMP DP RH WIND PRES REMARKS CENTRAL PARK CLEAR 55 38 52 NW5 30.21R LAGUARDIA APRT PTCLDY 57 40 52 NW12 30.18R KENNEDY INTL PTCLDY 55 38 52 NW9 30.19R NEWARK/LIBERTY PTCLDY 54 39 57 NW8 30.20R BRNX BOT. GARD N/A 54 39 58 CALM 30.19F TETERBORO CLEAR 53 37 54 W3 30.18R $$ NYZ177-179-078>081-230600- LONG ISLAND NEW YORK CITY SKY/WX TMP DP RH WIND PRES REMARKS FARMINGDALE CLEAR 54 39 57 VRB3 30.18R ISLIP CLEAR 52 40 63 NW5 30.15R SHIRLEY PTCLDY 49 40 71 CALM 30.17R WESTHAMPTON PTCLDY 55 38 52 NW9 30.18R MONTAUK POINT N/A 57 40 52 NW12G21 30.17R $$ NYZ052-065-067-230600- HUDSON VALLEY CITY SKY/WX TMP DP RH WIND PRES REMARKS WHITE PLAINS CLEAR 46 38 73 SW3 30.17R NEWBURGH CLEAR 46 39 76 CALM 30.18R MONTGOMERY CLEAR 48 38 68 W5 30.17R POUGHKEEPSIE CLEAR 45 41 86 CALM 30.16R ALBANY PTCLDY 44 40 85 CALM 30.18R $$ NJZ001-105-106-008-010-013-015-019>022-104-230600- NEW JERSEY CITY SKY/WX TMP DP RH WIND PRES REMARKS NEWARK/LIBERTY PTCLDY 54 39 57 NW8 30.20R TETERBORO CLEAR 53 37 54 W3 30.18R CALDWELL CLEAR 50 38 63 SW3 30.20R MORRISTOWN CLEAR 45 39 81 CALM 30.20R SOMERVILLE CLEAR 45 41 86 CALM 30.19S LINDEN FAIR 57 43 60 NW7 30.22R SUSSEX CLEAR 44 40 85 CALM 30.19R ANDOVER N/A 42 41 96 CALM 30.21R TRENTON CLEAR 51 40 65 NW3 30.21R MILLVILLE PTCLDY 54 43 66 NW6 30.21R ATLANTIC CITY PTCLDY 50 45 83 N3 30.20R WRIGHTSTOWN PTCLDY 49 42 76 N7 30.18S TOMS RIVER PTCLDY 50 41 71 CALM 30.21R BELMAR PTCLDY 52 37 58 NW7 30.19S $$ PAZ047>061-062-071-230600- EASTERN PENNSYLVANIA CITY SKY/WX TMP DP RH WIND PRES REMARKS PHILADELPHIA PTCLDY 57 40 52 NW10 30.22R ALLENTOWN CLEAR 48 38 68 W3 30.22R SCRANTON CLEAR 47 38 71 CALM 30.22R $$ CTZ002-004>006-009-010-012-RIZ004-006-007-MAZ004-011-015-230600- SOUTHERN NEW ENGLAND IN CT CITY SKY/WX TMP DP RH WIND PRES REMARKS BRADLEY INTL CLEAR 49 39 68 N3 30.13R HARTFORD CLEAR 52 39 61 VRB6 30.15R DANBURY CLEAR 43 39 86 CALM 30.18R WTRBRY/OXFORD CLEAR 45 36 70 NW3 30.17R BRIDGEPORT CLEAR 52 42 69 W5 30.17R MERIDEN CLEAR 44 40 85 CALM 30.16R NEW HAVEN CLEAR 56 41 57 VRB7 30.17R CHESTER FAIR 48 41 76 SW3 30.15R GROTON CLEAR 50 40 68 W7 30.14R WILLIMANTIC CLEAR 45 40 82 CALM 30.14R IN RI CITY SKY/WX TMP DP RH WIND PRES REMARKS PROVIDENCE CLEAR 49 40 71 W5 30.14R BLOCK ISLAND CLEAR 54 37 54 NW12G18 30.15R WESTERLY CLEAR 49 40 71 CALM 30.15R IN MA CITY SKY/WX TMP DP RH WIND PRES REMARKS BOSTON CLEAR 53 38 56 W8 30.11R WORCESTER CLEAR 46 37 71 NW7 30.11R WESTFIELD CLEAR 48 39 71 CALM 30.13R PROVINCETOWN CLEAR 55 39 54 NW17G26 30.10R NANTUCKET CLEAR 56 41 57 NW18G26 30.09R $$ ANZ330-335-338-340-345-350-353-355-230600- COASTAL MARINE OBSERVATIONS STATION/POSITION TIME SKY/WX TEMP WIND PRES VSBY WAVE AIR SEA DIR/SP/G HT/PER (UTC) (F) (DEG/KT/KT) (MB) (MI) (FT/S) NY HARB ENTRANCE 0500 59 69 320/ 16/ 19 1021.9 4/ 9 4S FIRE IS 0500 69 N/A 3/10 20S FIRE ISLAND 0500 59 68 340/ 16/ 19 1021.3 4/ 5 23SW MTP 0500 N/A 6/10 HUDSON CANYON 0500 62 70 340/ 21/ 25 1020.3 7/ 6 EXECUTION ROCKS 0500 57 69 300/ 10/ 14 N/A WESTERN LI SOUND 0500 58 320/ 10/ 14 N/A 0 CENTRAL LI SOUND 0400 58 69 310/ 17/ 19 N/A 2/ 5 EASTERN LI SOUND 0400 56 67 310/ 10/ 16 N/A ROBBINS REEF 0500 56 310/ 10/ 12 1021.0 $$ >>>>>>>>>>>>>>>>>>>>>>>>>>>> KEY <<<<<<<<<<<<<<<<<<<<<<<<<<< > < > SKY/WX - SKY CONDITION/PRESENT WEATHER < > TMP - TEMPERATURE IN FAHRENHEIT < > DP - DEWPOINT IN FAHRENHEIT < > RH - RELATIVE HUMIDITY IN PERCENT < > WIND - DIRECTION AND SPEED IN MPH < > PRES - MEAN SEA LEVEL PRESSURE IN INCHES OF HG < > WCI - WIND CHILL INDEX < > VSB - VISIBILITY IN MILES < > HX - HEAT INDEX < > TC - TEMPERATURE IN CELSIUS < > VRB - VARIABLE WIND DIRECTION < > < >>>>>>>>>>>>>>>>>>>>>>>>>>>> KEY <<<<<<<<<<<<<<<<<<<<<<<<<<<

USA.gov is the U.S. government's official web portal to all federal, state and local government web resources and services.